Back to catalog

STARLINK-36916

AliveCommunicationsSSO
NORAD 68022·PAYLOAD·🇺🇸 United States

Launched Mar 1, 2026 from Vandenberg Space Force Base

Loading…

Next Passes (next 24 hours)

TLE

FreshSource: CelesTrak SupGP

Epoch: Sep 14, 2026, 21:34 UTC

1 68022C 26040H   26257.89909722 -.00045115  00000+0 -14005-2 0  2574
2 68022  97.2853 205.2745 0001816  88.0381  25.6767 15.33460149    13

Track STARLINK-36916 in real time with AllMySat

Download on the App Store